Regional Weather Roundup
Issued by NWS Cleveland, OH

Home | Current Version | Previous Version | Graphics & Text | Print | Product List | Glossary Off
Versions: 1 2 3 4 5 6 7 8 9 10 11 12 13 14 15 16 17 18 19 20 21 22 23 24 25 26 27 28 29 30 31 32 33 34 35 36 37 38 39 40 41 42 43 44 45 46 47 48 49 50

000
ASUS41 KCLE 240212
RWRCLE
OHIO REGIONAL WEATHER ROUNDUP
NATIONAL WEATHER SERVICE WILMINGTON, OH
900 PM EST THU NOV 23 2017

NOTE: "FAIR" INDICATES FEW OR NO CLOUDS BELOW 12,000 FEET WITH NO
SIGNIFICANT WEATHER AND/OR OBSTRUCTIONS TO VISIBILITY.

OHZ001>008-015>018-024>027-034-035-043-044-240300-
   NORTHWEST OHIO

CITY           SKY/WX    TMP DP  RH WIND       PRES   REMARKS
DEFIANCE       FAIR      29  23  78 CALM      30.01R
FINDLAY        FAIR      31  24  75 S6        30.00R WCI  25
TOLEDO EXPRESS FAIR      30  26  85 CALM      30.00R
TOLEDO EXEC    FAIR      32  25  75 S5        30.01R WCI  27
LIMA           FAIR      34  26  72 S6        30.00R WCI  29
$$

OHZ009>014-019>023-028>033-038-089-240300-
   NORTHEAST OHIO

CITY           SKY/WX    TMP DP  RH WIND       PRES   REMARKS
CLE-HOPKINS    FAIR      35  24  64 S7        30.03S WCI  29
CLE-LAKEFRONT  FAIR      37  23  56 S10       30.01R
CUY CO. ARPT   MOCLDY    39  25  56 S9        30.01R
LORAIN-ELYRIA  FAIR      33  20  58 S7        30.01S WCI  27
ASHTABULA      CLOUDY    37  24  59 SW8       30.00S
AKRON-CANTON   FAIR      30  22  72 SW7       30.01S WCI  23
WOOSTER        FAIR      30  23  75 S3        30.01S
MANSFIELD      FAIR      32  25  75 S9        29.99S WCI  24
YOUNGSTOWN     CLOUDY    36  22  56 SW8       30.00S
$$

OHZ042-051>053-060>062-070>072-077>081-240300-
  SOUTHWEST OHIO

CITY           SKY/WX    TMP DP  RH WIND       PRES   REMARKS
CINC-COVINGTON FAIR      36  25  64 S6        30.02S
CINC-LUNKEN    FAIR      31  28  89 CALM      30.05S
HAMILTON       FAIR      30  28  92 CALM      30.03S
DAYTON         FAIR      37  25  61 S12       30.01S
WRIGHT-PAT AFB FAIR      34  22  63 S5        30.01S WCI  30
DAYTON GENERAL FAIR      34  23  64 S6        30.00F WCI  29
WILMINGTON     FAIR      32  25  75 S5        30.00F WCI  27
$$

OHZ036-037-039>041-045>050-054>059-063>069-073>076-082>088-240300-
  CENTRAL AND SOUTHEAST OHIO

CITY           SKY/WX    TMP DP  RH WIND       PRES   REMARKS
COLUMBUS       FAIR      33  25  72 CALM      30.02S
OSU AIRPORT    FAIR      34  26  72 CALM      30.01F
BOLTON FIELD   FAIR      31  24  78 CALM      30.03S
RICKENBACK AFB FAIR      31  24  74 S5        30.02F WCI  26
NEWARK         FAIR      28  24  85 CALM      30.02S
MARION         FAIR      30  24  78 S6        30.01S WCI  24
LANCASTER      FAIR      27  24  89 SE3       30.02F
ZANESVILLE     FAIR      33  22  63 CALM      30.03S
NEW PHILLY     FAIR      29  23  78 CALM      30.04S
$$



USA.gov is the U.S. government's official web portal to all federal, state and local government web resources and services.